Pecos, TX

1:06 AM CST on February 14, 2016 (GMT -0600)
Pecos Municipal

Weather History for KPEQ - May, 2013

Change the Weather History Date:

Friday, May 3, 2013

  Actual Average (KFST) Record (KFST)
Temperature  
Mean Temperature 48 °F -  
Max Temperature 68 °F 86 °F - (-1)
Min Temperature 29 °F 57 °F - (-1)
Degree Days  
Heating Degree Days 16    
Moisture  
Dew Point 20 °F    
Average Humidity 40    
Maximum Humidity 62    
Minimum Humidity 15    
Precipitation  
Precipitation 0.00 in - - ()
Sea Level Pressure  
Sea Level Pressure 30.38 in    
Wind  
Wind Speed 4 mph (SSW)    
Max Wind Speed 8 mph    
Max Gust Speed -    
Visibility 10 miles    
Events      
Averages and records for this station are not official NWS values.
T = Trace of Precipitation, MM = Missing Value Source: NWS Daily Summary

Daily Weather History Graph

Daily Weather History Graph

Search for Another Location

Airport or City:

Trip Planner

Search our weather history database for the weather conditions in past years. The results will help you decide how hot, cold, wet, or windy it might be!

Date:

Astronomy

May. 03, 2013 Rise Set
Actual Time 7:07 AM CDT 8:35 PM CDT
Civil Twilight 6:41 AM CDT 9:01 PM CDT
Nautical Twilight 6:10 AM CDT 9:32 PM CDT
Astronomical Twilight 5:37 AM CDT 10:04 PM CDT
Moon 3:08 AM CDT (5/3) 2:54 PM CDT (5/3)
Length of Visible Light 14h 20m
Length of Day
13h 28m
Last Quarter, 37% of the Moon is Illuminated
May 3
Last Quarter
May 9
New
May 17
First Quarter
May 24
Full
May 31
Last Quarter

Hourly Weather History & Observations

Time (CDT) Temp. Windchill Dew Point Humidity Pressure Visibility Wind Dir Wind Speed Gust Speed Precip Events Conditions
12:15 AM 42.8 °F 38.0 °F 22.8 °F 45% 30.53 in 10.0 mi NE 8.1 mph - N/A   Clear
12:55 AM 41.5 °F 37.8 °F 22.6 °F 47% 30.53 in 10.0 mi ENE 5.8 mph - N/A   Clear
1:15 AM 41.9 °F 40.0 °F 22.8 °F 47% 30.53 in 10.0 mi NE 3.5 mph - N/A   Clear
1:35 AM 41.5 °F - 22.6 °F 47% 30.52 in 10.0 mi Calm Calm - N/A   Clear
1:55 AM 38.7 °F - 21.2 °F 50% 30.52 in 10.0 mi Calm Calm - N/A   Clear
2:15 AM 38.3 °F - 22.5 °F 53% 30.52 in 10.0 mi Calm Calm - N/A   Clear
2:35 AM 39.2 °F - 22.1 °F 50% 30.51 in 10.0 mi Calm Calm - N/A   Clear
2:55 AM 38.5 °F 36.1 °F 21.7 °F 51% 30.51 in 10.0 mi SSW 3.5 mph - N/A   Clear
3:15 AM 35.2 °F 32.4 °F 20.3 °F 55% 30.50 in 10.0 mi SW 3.5 mph - N/A   Clear
3:35 AM 33.3 °F 27.9 °F 20.3 °F 59% 30.50 in 10.0 mi WSW 5.8 mph - N/A   Clear
4:15 AM 33.3 °F 26.4 °F 19.9 °F 58% 30.50 in 10.0 mi WSW 8.1 mph - N/A   Clear
4:35 AM 32.5 °F 27.1 °F 19.2 °F 58% 30.49 in 10.0 mi WSW 5.8 mph - N/A   Clear
4:55 AM 31.8 °F 26.2 °F 18.9 °F 59% 30.49 in 10.0 mi WSW 5.8 mph - N/A   Clear
5:15 AM 32.0 °F 26.4 °F 19.2 °F 59% 30.49 in 10.0 mi WSW 5.8 mph - N/A   Clear
5:35 AM 32.0 °F 26.4 °F 19.0 °F 59% 30.49 in 10.0 mi WSW 5.8 mph - N/A   Clear
5:55 AM 31.5 °F 26.8 °F 18.5 °F 59% 30.49 in 10.0 mi West 4.6 mph - N/A   Clear
6:15 AM 31.1 °F 25.4 °F 18.7 °F 60% 30.49 in 10.0 mi West 5.8 mph - N/A   Clear
7:15 AM 29.1 °F - 17.6 °F 62% 30.49 in 10.0 mi Calm Calm - N/A   Clear
8:15 AM 33.4 °F - 18.9 °F 55% 30.49 in 10.0 mi Calm Calm - N/A   Clear
9:55 AM 48.0 °F - 22.3 °F 36% 30.46 in 10.0 mi Calm Calm - N/A   Clear
10:15 AM 49.3 °F - 22.1 °F 34% 30.45 in 10.0 mi Calm Calm - N/A   Clear
10:35 AM 50.7 °F - 22.5 °F 33% 30.44 in 10.0 mi NW 4.6 mph - N/A   Clear
12:35 PM 56.3 °F - 18.9 °F 23% 30.38 in 10.0 mi SW 6.9 mph - N/A   Clear
1:35 PM 58.5 °F - 18.3 °F 21% 30.33 in 10.0 mi NW 4.6 mph - N/A   Clear
3:15 PM 63.7 °F - 18.3 °F 17% 30.24 in 10.0 mi SSE 6.9 mph - N/A   Clear
4:15 PM 66.4 °F - 19.2 °F 16% 30.18 in 10.0 mi ESE 6.9 mph - N/A   Clear
4:55 PM 68.5 °F - 19.6 °F 16% 30.14 in 10.0 mi ENE 5.8 mph - N/A   Clear
5:35 PM 68.0 °F - 18.5 °F 15% 30.12 in 10.0 mi Calm Calm - N/A   Clear
5:55 PM 68.2 °F - 18.7 °F 15% 30.11 in 10.0 mi Calm Calm - N/A   Clear
7:35 PM 67.5 °F - 18.5 °F 15% 30.07 in 10.0 mi East 4.6 mph - N/A   Clear
9:55 PM 54.0 °F - 15.8 °F 22% 30.08 in 10.0 mi East 5.8 mph - N/A   Clear
10:15 PM 51.3 °F - 14.9 °F 24% 30.08 in 10.0 mi ESE 4.6 mph - N/A   Clear
10:35 PM 50.7 °F - 14.9 °F 24% 30.09 in 10.0 mi ESE 5.8 mph - N/A   Clear
11:15 PM 49.1 °F - 14.4 °F 25% 30.07 in 10.0 mi ESE 6.9 mph - N/A   Clear